Tracking 33407 objects as of 5-Mar-2026
HD Live streaming from Space Station
objects crossing your sky now

COSMOS 592

Track COSMOS 592 now!
10-day predictions
COSMOS 592 is classified as:


NORAD ID: 6849
Int'l Code: 1973-069E
Perigee: 1,337.5 km
Apogee: 1,490.5 km
Inclination: 74.0 °
Period: 113.9 minutes
Semi major axis: 7784 km
RCS: 0.7024 m2 (medium)
Launch date: October 2, 1973
Source: Commonwealth of Independent States (former USSR) (CIS)
Launch site: PLESETSK MISSILE AND SPACE COMPLEX (PKMTR)
Your satellite tracking list
Your tracking list is empty




NASA's NSSDC Master Catalog

Two Line Element Set (TLE):
1 06849U 73069E   26064.25378351  .00000020  00000-0  19360-3 0  9998
2 06849  73.9991 115.6751 0098289 156.1389 204.4272 12.63906756418539
Source of the keplerian elements: AFSPC